Simultaneous Nadir Overpasses (SNOs) Predictions

Prediction of SNOs between FY3D and METOP-C Satellite Orbit:

Table of predicted SNOs for the next 14.0 days since TLE Epoch: 7/24/2021
Index Date (FY3D) Time (FY3D) Lat,Lon (FY3D) SZA (FY3D ) Date (METOP-C) Time (METOP-C) Lat,Lon (METOP-C) SZA (METOP-C ) Distance(km) Time Diff (sec)
1 08/03/2021 20:49:53 74.17,-140.53 57.07 08/03/2021 20:50:59 74.15,-137.59 56.90 89.30 66
2 08/03/2021 21:40:35 -74.06, 27.07 123.05 08/03/2021 21:41:43 -74.02, 29.42 123.21 71.96 68
3 08/03/2021 22:31:17 73.93,-165.29 56.82 08/03/2021 22:32:26 73.88,-163.59 56.68 52.90 69
4 08/03/2021 23:21:59 -73.82, 2.30 123.30 08/03/2021 23:23:10 -73.75, 3.43 123.44 36.16 71
5 08/04/2021 00:12:40 73.64, 170.04 56.52 08/04/2021 00:13:53 73.60, 170.43 56.45 12.73 73
6 08/04/2021 01:03:22 -73.53, -22.38 123.60 08/04/2021 01:04:36 -73.52, -22.42 123.62 1.42 74
7 08/04/2021 01:54:07 73.54, 144.90 56.43 08/04/2021 01:55:16 73.53, 144.93 56.41 1.35 69
8 08/04/2021 02:44:51 -73.53, -47.76 123.58 08/04/2021 02:45:57 -73.55, -47.70 123.57 2.94 66
9 08/04/2021 03:35:35 73.50, 119.64 56.40 08/04/2021 03:36:38 73.51, 119.53 56.40 3.58 63
10 08/04/2021 04:26:20 -73.53, -73.14 123.56 08/04/2021 04:27:19 -73.53, -73.09 123.57 1.42 59
11 08/04/2021 05:17:05 73.55, 94.14 56.47 08/04/2021 05:17:59 73.54, 94.26 56.45 3.83 54
12 08/04/2021 06:07:48 -73.49, -98.40 123.59 08/04/2021 06:08:41 -73.51, -98.49 123.58 3.43 53
13 08/04/2021 06:58:33 73.50, 68.88 56.44 08/04/2021 06:59:21 73.51, 68.86 56.44 1.35 48
14 08/04/2021 07:49:17 -73.49,-123.78 123.57 08/04/2021 07:50:03 -73.48,-123.88 123.58 3.32 46
15 08/04/2021 08:40:02 73.51, 43.50 56.46 08/04/2021 08:40:43 73.49, 43.47 56.44 1.92 41
16 08/04/2021 09:30:46 -73.49,-149.15 123.54 08/04/2021 09:31:24 -73.51,-149.16 123.53 1.73 38
17 08/04/2021 10:21:31 73.51, 18.12 56.49 08/04/2021 10:22:04 73.52, 18.19 56.49 2.43 33
18 08/04/2021 11:12:15 -73.50,-174.53 123.52 08/04/2021 11:12:46 -73.49,-174.55 123.54 1.30 31
19 08/04/2021 12:03:00 73.51, -7.25 56.51 08/04/2021 12:03:26 73.49, -7.20 56.48 2.68 26
20 08/04/2021 12:53:44 -73.50, 160.09 123.50 08/04/2021 12:54:07 -73.51, 160.17 123.49 3.02 23
21 08/04/2021 13:44:28 73.47, -32.52 56.48 08/04/2021 13:44:48 73.47, -32.59 56.48 2.35 20
22 08/04/2021 14:35:13 -73.50, 134.71 123.48 08/04/2021 14:35:29 -73.49, 134.78 123.50 2.69 16
23 08/04/2021 15:25:57 73.47, -57.90 56.50 08/04/2021 15:26:09 73.50, -57.87 56.53 3.37 12
24 08/04/2021 16:16:41 -73.46, 109.45 123.51 08/04/2021 16:16:51 -73.47, 109.39 123.50 2.13 10
25 08/04/2021 17:07:25 73.47, -83.27 56.52 08/04/2021 17:07:30 73.48, -83.26 56.52 0.55 5
26 08/04/2021 17:58:09 -73.46, 84.07 123.48 08/04/2021 17:58:12 -73.45, 84.00 123.50 2.92 3
27 08/04/2021 18:48:54 73.48,-108.65 56.55 08/04/2021 18:48:52 73.45,-108.65 56.52 2.63 2
28 08/04/2021 19:39:38 -73.47, 58.69 123.46 08/04/2021 19:39:33 -73.47, 58.72 123.46 1.17 5
29 08/04/2021 20:30:23 73.48,-134.03 56.57 08/04/2021 20:30:13 73.48,-133.93 56.57 3.19 10
30 08/04/2021 21:21:07 -73.47, 33.31 123.44 08/04/2021 21:20:55 -73.45, 33.33 123.46 2.21 12
31 08/04/2021 22:11:51 73.43,-159.29 56.54 08/04/2021 22:11:35 73.46,-159.32 56.56 2.74 16
32 08/04/2021 23:02:35 -73.42, 8.05 123.47 08/04/2021 23:02:17 -73.43, 7.94 123.46 3.62 18
33 08/04/2021 23:53:20 73.44, 175.33 56.56 08/04/2021 23:52:57 73.43, 175.29 56.56 1.34 23
34 08/05/2021 00:44:04 -73.43, -17.33 123.45 08/05/2021 00:43:38 -73.45, -17.34 123.42 3.08 26
35 08/05/2021 01:34:49 73.44, 149.95 56.58 08/05/2021 01:34:18 73.46, 150.01 56.61 2.95 31
36 08/05/2021 02:25:33 -73.43, -42.71 123.43 08/05/2021 02:25:00 -73.43, -42.73 123.42 0.89 33
37 08/05/2021 03:16:18 73.45, 124.57 56.61 08/05/2021 03:15:40 73.44, 124.62 56.60 1.58 38
38 08/05/2021 04:07:02 -73.43, -68.08 123.40 08/05/2021 04:06:22 -73.41, -68.12 123.42 3.11 40
39 08/05/2021 04:57:46 73.40, 99.31 56.57 08/05/2021 04:57:02 73.42, 99.23 56.60 3.26 44
40 08/05/2021 05:48:31 -73.44, -93.46 123.38 08/05/2021 05:47:43 -73.43, -93.40 123.38 1.85 48
41 08/05/2021 06:39:15 73.40, 73.93 56.60 08/05/2021 06:38:24 73.39, 73.84 56.60 3.20 51
42 08/05/2021 07:29:59 -73.39,-118.73 123.41 08/05/2021 07:29:05 -73.41,-118.79 123.38 3.25 54
43 08/05/2021 08:20:44 73.41, 48.55 56.62 08/05/2021 08:19:45 73.42, 48.56 56.65 1.64 59
44 08/05/2021 09:11:28 -73.39,-144.10 123.39 08/05/2021 09:10:27 -73.39,-144.19 123.38 2.68 61
45 08/05/2021 10:02:13 73.41, 23.18 56.64 08/05/2021 10:01:07 73.40, 23.17 56.64 1.35 66
46 08/05/2021 10:52:57 -73.40,-169.48 123.37 08/05/2021 10:51:48 -73.42,-169.46 123.33 2.14 69
47 08/05/2021 11:43:42 73.41, -2.20 56.67 08/05/2021 11:42:28 73.42, -2.11 56.69 3.14 74
48 08/05/2021 12:34:25 -73.35, 165.25 123.40 08/05/2021 12:33:11 -73.34, 165.03 123.38 7.14 74
49 08/05/2021 13:25:06 73.17, -27.02 56.42 08/05/2021 13:23:54 73.20, -27.95 56.51 30.25 72
50 08/05/2021 14:15:49 -73.11, 140.43 123.64 08/05/2021 14:14:37 -73.12, 139.20 123.56 39.85 72
51 08/05/2021 15:06:30 72.92, -51.85 56.17 08/05/2021 15:05:21 72.92, -53.88 56.28 66.46 69
52 08/05/2021 15:57:12 -72.81, 115.70 123.95 08/05/2021 15:56:05 -72.79, 113.17 123.83 83.34 67



Historial Predications of SNOs between FY3D and METOP-C
